Terminal Aerodrome Forecast
Issued by NWS Mt. Holly, NJ

Home | Current Version | Previous Version | Text Only | Print | Product List | Glossary On
Versions: 1 2 3 4 5 6 7 8 9 10 11 12 13 14 15 16 17 18 19 20 21 22 23 24
000
FTUS41 KPHI 180536
TAFILG
TAF
KILG 180536Z 1806/1906 02007KT 1 1/2SM BR OVC002
     FM181100 34006KT 3SM BR BKN005 OVC015
     FM181300 31008KT P6SM VCSH BKN015
     FM181600 32010G18KT P6SM BKN035
     FM182300 31004KT P6SM SCT050=

USA.gov is the U.S. government's official web portal to all federal, state and local government web resources and services.